No particular awareness of the weather is required.    There are no Weather-warnings


Meteo18 Weather Cam more information Meteo18 Weather Cam


Thunder radar more information blitzortung!


Rain radar more information rain snow radar


Visit our other weather sites:

Template documentation
and downloads

And another site



Weather Underground History page Text

Daily Summary for March 7, 2018 Units:  English    Metric   Both
« Previous Day
Next Day »
Daily Weekly Monthly Yearly Custom
  High: Low: Average:
Temperature: TemperatureC °F 4.3 °F 6.1 °F
Dew Point: DewpointC °F 2.3 °F 3.9 °F
Humidity: Humidity % 72 % 86 %
Wind Speed: WindSpeedKMH mph 1.4 mph 11.6 mph
Wind Gust: WindSpeedGustKMH mph - -
Wind:- - WSW
Pressure: PressurehPa in 992.4 in -
Precipitation: 2.8 in    
Historical Graphs
 
 
Tabular Data for March 7, 2018
Time Temperature Dew Point Pressure Wind Wind Speed Wind Gust Humidity Rainfall Rate (Hourly)
TemperatureC °F DewpointC °F PressurehPa in Calm     Humidity % HourlyPrecipMM in
00:05 5.9 °F 4.7 °F 992.4 in SSW 13.0 mph 24.1 mph 92 % 0.0 in
00:11 5.9 °F 4.7 °F 992.4 in SW 14.3 mph 24.1 mph 92 % 0.0 in
00:17 5.9 °F 4.7 °F 992.4 in SSW 11.1 mph 30.6 mph 92 % 0.0 in
00:23 5.9 °F 4.7 °F 992.4 in SW 25.9 mph 33.8 mph 92 % 0.0 in
00:29 5.8 °F 4.6 °F 992.4 in SW 14.3 mph 22.5 mph 92 % 0.0 in
00:33 5.9 °F 4.5 °F 992.4 in SW 17.7 mph 27.4 mph 91 % 0.0 in
00:39 5.8 °F 4.4 °F 992.4 in SW 22.7 mph 25.7 mph 91 % 0.0 in
00:45 5.8 °F 4.4 °F 992.4 in SW 19.5 mph 35.4 mph 91 % 0.0 in
00:51 5.8 °F 4.4 °F 992.8 in SW 17.7 mph 27.4 mph 91 % 0.0 in
00:57 5.7 °F 4.5 °F 992.8 in SSW 16.3 mph 27.4 mph 92 % 0.0 in
01:03 5.6 °F 4.4 °F 992.8 in SW 22.7 mph 33.8 mph 92 % 0.0 in
01:09 5.6 °F 4.2 °F 993.1 in SW 13.0 mph 35.4 mph 91 % 0.0 in
01:15 5.5 °F 4.3 °F 993.1 in SW 22.7 mph 29.0 mph 92 % 0.0 in
01:21 5.4 °F 4.2 °F 993.1 in SSW 7.9 mph 19.3 mph 92 % 0.0 in
01:27 5.4 °F 4.4 °F 993.1 in WSW 17.7 mph 22.5 mph 93 % 0.0 in
01:33 5.4 °F 4.2 °F 993.1 in WSW 7.9 mph 30.6 mph 92 % 0.0 in
01:39 5.3 °F 4.1 °F 993.1 in SW 16.3 mph 29.0 mph 92 % 0.3 in
01:45 5.3 °F 4.1 °F 993.5 in WSW 19.5 mph 30.6 mph 92 % 0.3 in
01:51 5.3 °F 4.0 °F 993.5 in SW 17.7 mph 25.7 mph 91 % 0.3 in
01:57 5.4 °F 3.9 °F 993.5 in SW 9.7 mph 20.9 mph 90 % 0.3 in
02:03 5.4 °F 3.9 °F 993.5 in WSW 17.7 mph 24.1 mph 90 % 0.3 in
02:09 5.4 °F 3.7 °F 993.5 in SW 19.5 mph 24.1 mph 89 % 0.3 in
02:15 5.5 °F 3.7 °F 993.5 in WSW 13.0 mph 40.2 mph 88 % 0.3 in
02:21 5.5 °F 3.7 °F 993.8 in West 24.1 mph 24.1 mph 88 % 0.3 in
02:27 5.5 °F 3.5 °F 993.8 in West 16.3 mph 24.1 mph 87 % 0.3 in
02:33 5.6 °F 3.6 °F 993.8 in WSW 13.0 mph 22.5 mph 87 % 0.3 in
02:39 5.6 °F 3.6 °F 993.8 in SW 13.0 mph 25.7 mph 87 % 0.0 in
02:45 5.6 °F 3.6 °F 993.8 in West 9.7 mph 25.7 mph 87 % 0.0 in
02:51 5.6 °F 3.6 °F 994.1 in West 22.7 mph 30.6 mph 87 % 0.0 in
02:57 5.6 °F 3.8 °F 994.1 in West 22.7 mph 25.7 mph 88 % 0.0 in
03:03 5.5 °F 3.7 °F 994.1 in WSW 9.7 mph 17.7 mph 88 % 0.0 in
03:09 5.5 °F 3.7 °F 994.1 in SW 9.7 mph 16.1 mph 88 % 0.0 in
03:15 5.5 °F 3.7 °F 994.1 in SW 14.3 mph 19.3 mph 88 % 0.0 in
03:21 5.5 °F 3.8 °F 994.1 in SW 9.7 mph 19.3 mph 89 % 0.0 in
03:27 5.4 °F 3.7 °F 994.1 in WSW 13.0 mph 25.7 mph 89 % 0.0 in
03:33 5.4 °F 3.9 °F 994.1 in SSW 19.5 mph 22.5 mph 90 % 0.0 in
03:39 5.4 °F 3.9 °F 994.5 in West 6.4 mph 17.7 mph 90 % 0.0 in
03:45 5.4 °F 3.7 °F 994.5 in SW 14.3 mph 24.1 mph 89 % 0.0 in
03:51 5.4 °F 3.6 °F 994.5 in SW 19.5 mph 25.7 mph 88 % 0.0 in
03:57 5.4 °F 3.7 °F 994.8 in SW 11.1 mph 24.1 mph 89 % 0.0 in
04:03 5.4 °F 3.6 °F 994.8 in WSW 16.3 mph 24.1 mph 88 % 0.0 in
04:09 5.3 °F 3.5 °F 994.8 in SW 19.5 mph 35.4 mph 88 % 0.0 in
04:15 5.3 °F 3.5 °F 994.8 in SW 13.0 mph 24.1 mph 88 % 0.0 in
04:21 5.3 °F 3.5 °F 995.1 in SW 13.0 mph 20.9 mph 88 % 0.0 in
04:27 5.3 °F 3.5 °F 995.1 in SW 11.1 mph 22.5 mph 88 % 0.0 in
04:33 5.3 °F 3.5 °F 995.1 in SW 17.7 mph 20.9 mph 88 % 0.0 in
04:39 5.2 °F 3.5 °F 995.1 in SW 17.7 mph 17.7 mph 89 % 0.0 in
04:45 5.2 °F 3.4 °F 995.1 in SW 14.3 mph 24.1 mph 88 % 0.0 in
04:51 5.2 °F 3.5 °F 995.5 in SW 16.3 mph 20.9 mph 89 % 0.0 in
04:57 5.2 °F 3.5 °F 995.5 in SSW 13.0 mph 24.1 mph 89 % 0.0 in
05:03 5.1 °F 3.4 °F 995.5 in SSW 11.1 mph 22.5 mph 89 % 0.0 in
05:09 5.0 °F 3.5 °F 995.5 in SW 11.1 mph 19.3 mph 90 % 0.0 in
05:15 4.9 °F 3.4 °F 995.8 in SW 9.7 mph 12.9 mph 90 % 0.3 in
05:21 4.9 °F 3.6 °F 995.8 in WSW 9.7 mph 19.3 mph 91 % 0.3 in
05:27 4.8 °F 3.5 °F 995.8 in SW 16.3 mph 17.7 mph 91 % 0.3 in
05:33 4.8 °F 3.6 °F 995.8 in SW 16.3 mph 17.7 mph 92 % 0.3 in
05:39 4.8 °F 3.6 °F 995.8 in SW 3.2 mph 16.1 mph 92 % 0.3 in
05:45 4.8 °F 3.6 °F 995.8 in WSW 9.7 mph 11.3 mph 92 % 0.5 in
05:51 4.8 °F 3.6 °F 995.8 in SW 19.5 mph 20.9 mph 92 % 0.5 in
05:57 4.8 °F 3.6 °F 995.8 in SW 6.4 mph 16.1 mph 92 % 0.5 in
06:03 4.7 °F 3.5 °F 995.8 in WSW 13.0 mph 16.1 mph 92 % 0.5 in
06:09 4.7 °F 3.5 °F 995.8 in SW 9.7 mph 22.5 mph 92 % 0.5 in
06:15 4.8 °F 3.6 °F 995.8 in SW 4.7 mph 14.5 mph 92 % 0.5 in
06:21 4.8 °F 3.5 °F 995.8 in WSW 6.4 mph 25.7 mph 91 % 0.5 in
06:27 4.8 °F 3.5 °F 995.8 in SW 22.7 mph 24.1 mph 91 % 0.5 in
06:33 4.8 °F 3.5 °F 996.2 in SW 13.0 mph 19.3 mph 91 % 0.5 in
06:39 4.8 °F 3.5 °F 996.2 in West 20.9 mph 27.4 mph 91 % 0.5 in
06:45 4.7 °F 3.4 °F 996.2 in WSW 13.0 mph 22.5 mph 91 % 0.3 in
06:51 4.7 °F 3.5 °F 996.2 in WSW 16.3 mph 17.7 mph 92 % 0.3 in
06:57 4.6 °F 3.4 °F 996.5 in WSW 7.9 mph 14.5 mph 92 % 0.3 in
07:03 4.6 °F 3.6 °F 996.5 in SW 13.0 mph 25.7 mph 93 % 0.0 in
07:09 4.6 °F 3.6 °F 996.5 in SW 13.0 mph 17.7 mph 93 % 0.0 in
07:15 4.6 °F 3.6 °F 996.5 in SW 9.7 mph 17.7 mph 93 % 0.0 in
07:21 4.7 °F 3.7 °F 996.5 in SSW 16.3 mph 22.5 mph 93 % 0.3 in
07:27 4.7 °F 3.5 °F 996.8 in SW 14.3 mph 17.7 mph 92 % 0.3 in
07:33 4.7 °F 3.5 °F 996.8 in WSW 11.1 mph 19.3 mph 92 % 0.3 in
07:39 4.7 °F 3.5 °F 996.8 in WSW 9.7 mph 22.5 mph 92 % 0.3 in
07:45 4.8 °F 3.6 °F 997.2 in WSW 17.7 mph 24.1 mph 92 % 0.3 in
07:51 4.8 °F 3.6 °F 997.2 in SSE 16.3 mph 24.1 mph 92 % 0.3 in
07:57 4.7 °F 3.5 °F 997.2 in SW 24.1 mph 29.0 mph 92 % 0.3 in
08:03 4.7 °F 3.5 °F 997.5 in SW 13.0 mph 17.7 mph 92 % 0.3 in
08:09 4.7 °F 3.5 °F 997.5 in WSW 28.8 mph 29.0 mph 92 % 0.3 in
08:15 4.8 °F 3.5 °F 997.5 in SSW 7.9 mph 24.1 mph 91 % 0.3 in
08:21 4.8 °F 3.5 °F 997.9 in SW 14.3 mph 24.1 mph 91 % 0.0 in
08:27 4.8 °F 3.5 °F 997.9 in West 7.9 mph 24.1 mph 91 % 0.0 in
08:33 4.8 °F 3.6 °F 997.9 in WSW 9.7 mph 14.5 mph 92 % 0.0 in
08:39 4.7 °F 3.5 °F 997.9 in West 11.1 mph 24.1 mph 92 % 0.0 in
08:45 4.7 °F 3.5 °F 997.9 in SW 14.3 mph 22.5 mph 92 % 0.0 in
08:51 4.7 °F 3.5 °F 998.2 in WSW 14.3 mph 24.1 mph 92 % 0.0 in
08:57 4.8 °F 3.6 °F 998.2 in WSW 16.3 mph 19.3 mph 92 % 0.0 in
09:03 4.8 °F 3.6 °F 998.2 in SW 19.5 mph 27.4 mph 92 % 0.0 in
09:09 4.8 °F 3.6 °F 998.5 in SW 13.0 mph 17.7 mph 92 % 0.0 in
09:15 4.8 °F 3.5 °F 998.5 in WSW 9.7 mph 29.0 mph 91 % 0.0 in
09:21 4.8 °F 3.5 °F 998.5 in SW 17.7 mph 25.7 mph 91 % 0.0 in
09:27 4.8 °F 3.5 °F 998.5 in WSW 17.7 mph 22.5 mph 91 % 0.0 in
09:33 4.8 °F 3.5 °F 998.9 in SW 17.7 mph 27.4 mph 91 % 0.0 in
09:39 4.8 °F 3.5 °F 998.9 in SSW 17.7 mph 24.1 mph 91 % 0.3 in
09:45 4.7 °F 3.5 °F 999.2 in WSW 20.9 mph 20.9 mph 92 % 0.3 in
09:52 4.7 °F 3.5 °F 999.2 in SW 4.7 mph 27.4 mph 92 % 0.3 in
09:58 4.8 °F 3.6 °F 999.2 in WSW 14.3 mph 16.1 mph 92 % 0.3 in
10:04 4.9 °F 3.6 °F 999.2 in WSW 13.0 mph 29.0 mph 91 % 0.3 in
10:10 5.1 °F 3.8 °F 999.2 in SW 14.3 mph 20.9 mph 91 % 0.3 in
10:16 5.2 °F 3.9 °F 999.2 in SW 22.7 mph 24.1 mph 91 % 0.5 in
10:22 5.3 °F 4.0 °F 999.5 in WSW 19.5 mph 24.1 mph 91 % 0.5 in
10:28 5.3 °F 4.0 °F 999.5 in WSW 9.7 mph 17.7 mph 91 % 0.5 in
10:34 5.2 °F 4.0 °F 999.5 in SSW 11.1 mph 12.9 mph 92 % 0.5 in
10:40 5.2 °F 4.0 °F 999.5 in SW 14.3 mph 17.7 mph 92 % 0.3 in
10:46 5.2 °F 4.0 °F 999.9 in WSW 11.1 mph 20.9 mph 92 % 0.5 in
10:52 5.3 °F 4.3 °F 999.9 in WNW 13.0 mph 24.1 mph 93 % 0.5 in
10:58 5.4 °F 4.4 °F 999.9 in West 19.5 mph 20.9 mph 93 % 0.5 in
11:04 5.4 °F 4.4 °F 999.9 in WSW 13.0 mph 16.1 mph 93 % 0.5 in
11:10 5.5 °F 4.3 °F 999.9 in SW 11.1 mph 25.7 mph 92 % 0.5 in
11:16 5.6 °F 4.4 °F 1000.2 in WSW 14.3 mph 25.7 mph 92 % 0.3 in
11:22 5.8 °F 4.6 °F 999.9 in WSW 11.1 mph 24.1 mph 92 % 0.3 in
11:28 5.9 °F 4.5 °F 1000.2 in West 20.9 mph 22.5 mph 91 % 0.3 in
11:34 5.9 °F 4.5 °F 1000.2 in WSW 19.5 mph 19.5 mph 91 % 0.3 in
11:40 5.8 °F 4.6 °F 1000.2 in WSW 17.7 mph 22.5 mph 92 % 0.5 in
11:46 5.8 °F 4.6 °F 1000.2 in WSW 19.5 mph 20.9 mph 92 % 0.3 in
11:52 5.9 °F 4.7 °F 1000.6 in WNW 17.7 mph 27.4 mph 92 % 0.3 in
11:58 5.9 °F 4.5 °F 1000.6 in WSW 19.5 mph 22.5 mph 91 % 0.3 in
12:04 6.1 °F 4.7 °F 1000.6 in WSW 13.0 mph 16.1 mph 91 % 0.3 in
12:10 6.2 °F 4.7 °F 1000.6 in WSW 6.4 mph 22.5 mph 90 % 0.3 in
12:16 6.4 °F 4.6 °F 1000.6 in WSW 22.7 mph 24.1 mph 88 % 0.3 in
12:22 6.6 °F 4.6 °F 1000.9 in WSW 13.0 mph 24.1 mph 87 % 0.3 in
12:28 6.7 °F 4.7 °F 1000.9 in West 14.3 mph 24.1 mph 87 % 0.3 in
12:34 6.8 °F 5.0 °F 1000.9 in WSW 7.9 mph 11.3 mph 88 % 0.3 in
12:40 6.7 °F 4.5 °F 1000.9 in WSW 6.4 mph 14.5 mph 86 % 0.0 in
12:46 6.7 °F 4.7 °F 1000.9 in SW 13.0 mph 19.3 mph 87 % 0.0 in
12:52 6.6 °F 4.6 °F 1000.9 in WSW 13.0 mph 17.7 mph 87 % 0.0 in
12:58 6.3 °F 4.3 °F 1000.9 in WSW 13.0 mph 22.5 mph 87 % 0.3 in
13:04 6.8 °F 5.0 °F 1000.9 in WSW 9.7 mph 24.1 mph 88 % 0.3 in
13:10 7.1 °F 5.2 °F 1000.9 in West 9.7 mph 22.5 mph 88 % 0.3 in
13:16 6.9 °F 4.4 °F 1000.9 in WSW 14.3 mph 24.1 mph 84 % 0.5 in
13:22 7.0 °F 4.8 °F 1000.9 in SW 16.3 mph 19.3 mph 86 % 0.5 in
13:28 7.2 °F 5.0 °F 1000.9 in West 13.0 mph 25.7 mph 86 % 0.5 in
13:34 7.3 °F 4.8 °F 1000.9 in WSW 17.7 mph 19.3 mph 84 % 0.5 in
13:40 7.4 °F 5.0 °F 1000.9 in WSW 9.7 mph 14.5 mph 85 % 0.5 in
13:46 7.6 °F 5.2 °F 1000.9 in SW 7.9 mph 11.3 mph 85 % 0.5 in
13:52 7.8 °F 5.1 °F 1000.9 in West 7.9 mph 17.7 mph 83 % 0.5 in
13:58 8.0 °F 5.3 °F 1000.9 in WSW 7.9 mph 14.5 mph 83 % 0.5 in
14:04 8.0 °F 4.6 °F 1000.9 in West 20.9 mph 27.4 mph 79 % 0.5 in
14:10 8.3 °F 5.2 °F 1000.9 in West 4.7 mph 19.3 mph 81 % 0.5 in
14:16 8.3 °F 4.9 °F 1000.9 in WSW 14.3 mph 19.3 mph 79 % 0.0 in
14:22 8.5 °F 4.9 °F 1000.9 in SW 11.1 mph 19.3 mph 78 % 0.0 in
14:28 8.3 °F 5.1 °F 1001.2 in West 22.7 mph 27.4 mph 80 % 0.0 in
14:34 8.1 °F 5.2 °F 1001.2 in West 19.5 mph 22.5 mph 82 % 0.0 in
14:40 8.3 °F 5.8 °F 1001.2 in West 14.3 mph 20.9 mph 84 % 0.0 in
14:46 8.3 °F 5.1 °F 1001.2 in West 17.7 mph 32.2 mph 80 % 0.0 in
14:52 8.3 °F 4.7 °F 1001.2 in West 14.3 mph 22.5 mph 78 % 0.0 in
14:58 8.4 °F 4.6 °F 1001.2 in WSW 14.3 mph 19.3 mph 77 % 0.0 in
15:04 8.6 °F 4.8 °F 1001.2 in West 9.7 mph 20.9 mph 77 % 0.0 in
15:10 8.6 °F 4.6 °F 1001.2 in WSW 14.3 mph 27.4 mph 76 % 0.0 in
15:16 8.2 °F 4.4 °F 1001.6 in WSW 24.1 mph 25.7 mph 77 % 0.0 in
15:22 7.9 °F 4.7 °F 1001.6 in WSW 7.9 mph 17.7 mph 80 % 0.0 in
15:28 8.0 °F 4.6 °F 1001.6 in WSW 14.3 mph 20.9 mph 79 % 0.0 in
15:34 7.8 °F 4.9 °F 1001.6 in West 7.9 mph 17.7 mph 82 % 0.0 in
15:40 7.7 °F 5.0 °F 1001.6 in WSW 3.2 mph 8.0 mph 83 % 0.0 in
15:46 7.7 °F 5.0 °F 1001.6 in West 4.7 mph 9.7 mph 83 % 0.0 in
15:52 7.9 °F 5.2 °F 1001.6 in West 4.7 mph 9.7 mph 83 % 0.0 in
15:58 7.9 °F 5.0 °F 1001.6 in West 1.4 mph 6.4 mph 82 % 0.0 in
16:04 8.1 °F 5.2 °F 1001.6 in WNW 1.4 mph 6.4 mph 82 % 0.0 in
16:10 8.3 °F 5.4 °F 1001.9 in West 4.7 mph 6.4 mph 82 % 0.0 in
16:16 8.9 °F 5.6 °F 1001.9 in NW 4.7 mph 16.1 mph 80 % 0.0 in
16:22 9.1 °F 5.1 °F 1001.9 in WSW 7.9 mph 16.1 mph 76 % 0.3 in
16:28 8.8 °F 4.4 °F 1001.9 in WNW 30.6 mph 33.8 mph 74 % 0.3 in
16:34 7.6 °F 4.0 °F 1002.3 in West 17.7 mph 30.6 mph 78 % 0.5 in
16:40 7.1 °F 3.7 °F 1001.9 in WSW 3.2 mph 12.9 mph 79 % 0.5 in
16:46 7.4 °F 4.2 °F 1001.9 in WNW 6.4 mph 12.9 mph 80 % 0.5 in
16:52 7.7 °F 4.6 °F 1002.3 in West 7.9 mph 14.5 mph 81 % 0.5 in
16:58 8.0 °F 4.6 °F 1002.3 in West 6.4 mph 16.1 mph 79 % 0.5 in
17:04 8.3 °F 4.9 °F 1002.3 in WNW 6.4 mph 12.9 mph 79 % 0.5 in
17:10 8.5 °F 5.2 °F 1002.3 in West 3.2 mph 8.0 mph 80 % 0.5 in
17:16 8.4 °F 4.8 °F 1002.3 in WSW 6.4 mph 14.5 mph 78 % 0.5 in
17:22 8.4 °F 5.0 °F 1002.6 in West 9.7 mph 14.5 mph 79 % 0.3 in
17:28 8.7 °F 5.3 °F 1002.6 in WNW 7.9 mph 11.3 mph 79 % 0.3 in
17:34 8.8 °F 5.0 °F 1002.6 in West 3.2 mph 9.7 mph 77 % 0.0 in
17:40 8.9 °F 4.9 °F 1002.6 in WSW 7.9 mph 11.3 mph 76 % 0.0 in
17:46 8.8 °F 4.8 °F 1002.9 in West 7.9 mph 11.3 mph 76 % 0.0 in
17:52 8.8 °F 4.6 °F 1002.9 in WNW 9.7 mph 14.5 mph 75 % 0.0 in
17:58 8.8 °F 4.8 °F 1002.9 in West 4.7 mph 8.0 mph 76 % 0.0 in
18:04 8.7 °F 4.5 °F 1002.9 in West 13.0 mph 13.0 mph 75 % 0.0 in
18:10 8.5 °F 4.1 °F 1002.9 in West 6.4 mph 8.0 mph 74 % 0.0 in
18:16 8.3 °F 4.1 °F 1003.3 in WSW 4.7 mph 6.4 mph 75 % 0.0 in
18:22 8.4 °F 4.0 °F 1003.3 in WSW 3.2 mph 9.7 mph 74 % 0.0 in
18:28 8.4 °F 3.6 °F 1003.3 in WSW 6.4 mph 11.3 mph 72 % 0.0 in
18:34 8.2 °F 3.5 °F 1003.6 in WSW 6.4 mph 9.7 mph 72 % 0.0 in
18:40 8.1 °F 3.6 °F 1003.6 in WSW 9.7 mph 11.3 mph 73 % 0.0 in
18:46 7.8 °F 3.5 °F 1003.9 in West 4.7 mph 6.4 mph 74 % 0.0 in
18:52 7.6 °F 3.3 °F 1003.9 in West 3.2 mph 6.4 mph 74 % 0.0 in
18:58 7.4 °F 3.3 °F 1003.9 in West 1.4 mph 4.8 mph 75 % 0.0 in
19:04 7.3 °F 3.2 °F 1003.9 in West 4.7 mph 6.4 mph 75 % 0.0 in
19:10 7.2 °F 3.1 °F 1004.3 in WSW 3.2 mph 6.4 mph 75 % 0.0 in
19:16 7.2 °F 2.9 °F 1004.3 in West 3.2 mph 6.4 mph 74 % 0.0 in
19:22 7.3 °F 3.0 °F 1004.3 in West 4.7 mph 8.0 mph 74 % 0.0 in
19:28 7.3 °F 3.0 °F 1004.6 in West 3.2 mph 6.4 mph 74 % 0.0 in
19:34 7.3 °F 3.0 °F 1004.6 in WSW 4.7 mph 6.4 mph 74 % 0.0 in
19:40 7.3 °F 3.0 °F 1004.6 in SW 6.4 mph 12.9 mph 74 % 0.0 in
19:46 7.3 °F 3.0 °F 1004.6 in WSW 6.4 mph 11.3 mph 74 % 0.0 in
19:52 7.3 °F 3.2 °F 1005.0 in West 14.3 mph 14.5 mph 75 % 0.0 in
19:58 7.3 °F 3.3 °F 1005.0 in WSW 11.1 mph 11.3 mph 76 % 0.0 in
20:05 7.2 °F 3.4 °F 1005.0 in West 6.4 mph 8.0 mph 77 % 0.0 in
20:11 7.1 °F 3.5 °F 1005.0 in SW 6.4 mph 11.3 mph 78 % 0.0 in
20:17 6.9 °F 3.5 °F 1005.3 in WSW 4.7 mph 12.9 mph 79 % 0.0 in
20:23 6.8 °F 3.6 °F 1005.3 in WSW 4.7 mph 9.7 mph 80 % 0.0 in
20:29 6.8 °F 3.6 °F 1005.3 in WSW 6.4 mph 12.9 mph 80 % 0.0 in
20:35 6.6 °F 3.6 °F 1005.3 in WSW 1.4 mph 11.3 mph 81 % 0.0 in
20:41 6.4 °F 3.4 °F 1005.3 in SW 9.7 mph 9.7 mph 81 % 0.0 in
20:47 6.5 °F 3.5 °F 1005.6 in West 7.9 mph 8.0 mph 81 % 0.0 in
20:53 6.4 °F 3.6 °F 1005.6 in WSW 11.1 mph 12.9 mph 82 % 0.0 in
20:59 6.3 °F 3.5 °F 1005.6 in WSW 3.2 mph 9.7 mph 82 % 0.0 in
21:05 6.3 °F 3.5 °F 1005.6 in West 3.2 mph 9.7 mph 82 % 0.0 in
21:11 6.2 °F 3.5 °F 1005.6 in WSW 4.7 mph 9.7 mph 83 % 0.0 in
21:17 6.1 °F 3.4 °F 1006.0 in WSW 4.7 mph 6.4 mph 83 % 0.0 in
21:23 5.9 °F 3.2 °F 1006.0 in SW 4.7 mph 6.4 mph 83 % 0.0 in
21:29 5.7 °F 3.0 °F 1006.0 in SSW 1.4 mph 6.4 mph 83 % 0.0 in
21:35 5.4 °F 3.1 °F 1006.0 in SSW 3.2 mph 6.4 mph 85 % 0.0 in
21:41 5.1 °F 3.0 °F 1006.0 in SSW 3.2 mph 4.8 mph 86 % 0.0 in
21:47 5.1 °F 3.0 °F 1006.0 in SW 3.2 mph 4.8 mph 86 % 0.0 in
21:53 5.2 °F 3.1 °F 1006.3 in SW 7.9 mph 8.0 mph 86 % 0.0 in
21:59 4.9 °F 2.8 °F 1006.3 in West 7.9 mph 11.3 mph 86 % 0.0 in
22:05 5.1 °F 2.8 °F 1006.3 in WSW 6.4 mph 9.7 mph 85 % 0.0 in
22:11 5.3 °F 2.8 °F 1006.3 in SW 16.3 mph 17.7 mph 84 % 0.0 in
22:19 5.5 °F 2.7 °F 1006.3 in SW 13.0 mph 14.5 mph 82 % 0.0 in
22:25 5.5 °F 2.7 °F 1006.3 in SW 4.7 mph 11.3 mph 82 % 0.0 in
22:31 5.4 °F 2.6 °F 1006.7 in WSW 6.4 mph 14.5 mph 82 % 0.0 in
22:37 5.4 °F 2.6 °F 1006.7 in SW 4.7 mph 9.7 mph 82 % 0.0 in
22:43 5.2 °F 2.5 °F 1006.7 in SSW 6.4 mph 9.7 mph 83 % 0.0 in
22:49 5.2 °F 2.5 °F 1006.7 in West 6.4 mph 12.9 mph 83 % 0.0 in
22:55 5.2 °F 2.5 °F 1006.7 in SW 9.7 mph 12.9 mph 83 % 0.0 in
23:01 5.3 °F 2.5 °F 1006.7 in SSW 9.7 mph 16.1 mph 82 % 0.0 in
23:07 5.2 °F 2.5 °F 1006.7 in WSW 13.0 mph 14.5 mph 83 % 0.0 in
23:13 5.1 °F 2.5 °F 1006.7 in SW 7.9 mph 14.5 mph 83 % 0.0 in
23:19 5.1 °F 2.5 °F 1007.0 in WSW 7.9 mph 16.1 mph 83 % 0.0 in
23:25 5.0 °F 2.5 °F 1007.0 in SW 9.7 mph 16.1 mph 84 % 0.0 in
23:31 4.9 °F 2.4 °F 1007.0 in WSW 7.9 mph 14.5 mph 84 % 0.0 in
23:37 4.9 °F 2.6 °F 1007.0 in SW 9.7 mph 12.9 mph 85 % 0.0 in
23:43 4.8 °F 2.5 °F 1007.3 in SW 4.7 mph 11.3 mph 85 % 0.0 in
23:49 4.6 °F 2.5 °F 1007.3 in SW 6.4 mph 9.7 mph 86 % 0.0 in
23:55 4.3 °F 2.3 °F 1007.0 in SSW 4.7 mph 8.0 mph 87 % 0.0 in
Meteo18
Compliments of Weather Underground - 4 mb

Script developed by  Jim McMurry - jmcmurry@mwt.net Adapted for the template by  Wim van der Kuil - Leuven-Template.eu

You find our weather info also at:

European Weather Network

Weather Underground

Equipment we use:

Weather-station
Davis Vue

Weather-program
Meteobridge

Weather-server
Raspberry PI 2 B+

Provider
1 and 1

Davis Vue

Meteobridge

Raspberry PI 2 B+

1 and 1